Find Tian Lian 2-04

NORAD ID: 63361 Int'l Des: 2025-062 Owner: CAST Country: CN operational
HEOCIRCULARGSO

当前视图

正在加载3D地球...

About Tian Lian 2-04

Tian Lian 2-04 (NORAD 63361) is a satellite launched Mar 26, 2025 by CAST of CN. It operates in HEO, CIRCULAR, GSO orbit with a mass of 5000.00 kg.

即将过境

Passes for default location (London). Set your location on the main map for personalized predictions.

高度历史

Loading altitude history...

两行轨道根数

1 63361U 25062A 26195.14722175 -.00000137 00000-0 00000+0 0 9997
2 63361 4.3072 274.0521 0031633 9.3409 141.6364 1.00270765 4871
Epoch: Jul 14, 2026 • Age: 11 hours

当前状态

高度 35701.5 km
远地点 / 近地点 N/A
速度 3.08 km/s
星下点 -2.85°S, 79.82°E
发射日期 Mar 26, 2025
运行时间 1.3 years
类型 other

技术详情

分类 Payload
质量 5000.00 kg
干质量 2000.00 kg
总质量 5000.00 kg
长度 6.00 m
直径 2.50 m
跨度 20.00 m
形状 Box + 2 Pan + Dish
制造商 CAST
平台类型 DFH-4
阶段状态 In Orbit
所有者/国家 CAST/CN

Most Searched